Temp
61 61 60 61 62 62 62 62 62 63 62 62 61 60 58 56 55 52 49 48 44 43 43 41 40 41 39 39 39 38 37 37 35 34 35 36 35 36 38 42 45 45 46
60 61 60 61 61 61 60 60 60 59 60 58 59 57 55 53 51 49 47 45 43 41 40 41 40 41 40 38 37 36 35 34 35 33 33 33 33 37 39 39 42 46 45
58 58 56 56 57 56 56 56 56 55 54 53 52 51 50 49 48 48 46 44 42 41 41 40 40 39 37 35 35 34 34 34 33 33 34 39 39 39 39 42 42 43 46
55 54 52 52 52 51 51 51 50 50 48 47 47 46 45 45 44 44 43 41 40 40 39 39 38 37 35 34 34 34 34 34 35 36 37 38 39 41 39 37 38 40 40
52 51 49 49 48 47 46 45 45 45 46 45 44 43 43 42 42 40 39 38 36 35 35 36 35 37 38 38 38 37 38 37 38 36 35 36 36 37 36 38 36 37 38
50 49 48 48 46 44 44 44 44 43 43 43 41 41 41 42 43 42 38 35 35 33 32 34 36 38 39 39 38 37 38 37 35 35 34 34 36 37 37 36 33 31 29
48 47 47 46 43 42 42 41 39 38 37 36 36 35 35 38 40 39 37 32 32 31 32 33 35 37 36 37 38 39 39 40 40 37 35 35 35 37 32 30 32 32 31
46 45 45 43 40 38 37 35 35 35 34 34 33 33 33 35 38 37 36 32 32 33 33 34 37 37 38 37 38 37 37 38 39 40 37 37 37 38 36 34 34 34 35
42 40 41 40 37 36 35 34 35 34 33 33 34 34 35 36 38 37 36 34 34 33 34 36 38 39 38 40 38 34 36 36 42 41 40 40 40 40 39 35 30 30 30
38 38 38 37 36 35 35 34 33 34 34 35 35 39 41 38 39 40 40 41 38 38 38 38 37 37 39 39 36 35 32 33 34 35 35 38 39 38 41 35 32 28 28
38 37 37 36 35 35 34 34 35 35 36 37 39 41 42 42 40 40 40 39 37 36 36 36 36 37 37 37 37 34 33 36 36 34 34 34 35 35 35 35 34 32 28
37 36 35 37 38 38 36 38 39 39 39 40 39 38 40 41 40 39 39 38 38 36 35 35 36 36 35 35 34 36 36 36 33 33 32 31 31 31 33 33 32 32 32
37 38 39 41 43 44 43 42 42 43 42 40 38 38 37 38 39 37 37 37 37 35 35 34 35 34 34 34 34 34 34 32 32 30 30 29 30 32 31 31 33 33 32
42 42 43 43 43 43 42 44 42 42 40 38 37 36 36 37 37 38 37 37 37 36 34 35 34 32 33 32 33 34 33 32 30 29 29 30 30 31 30 31 29 30 28
44 43 42 42 42 41 41 42 41 39 38 38 36 36 35 35 35 36 35 34 34 34 32 33 32 32 31 32 32 32 32 31 29 29 29 28 28 29 29 30 30 29 27
42 41 40 40 41 40 38 37 38 38 37 37 37 36 36 36 36 35 35 34 33 33 31 30 30 30 29 30 29 29 30 30 30 29 27 26 26 26 26 28 29 28 27
42 40 39 41 40 40 40 38 34 34 35 35 35 35 34 34 34 33 33 32 32 31 29 29 28 28 28 28 27 28 27 28 28 26 26 26 25 25 26 27 28 28 28
41 40 39 40 39 39 39 37 37 36 34 34 32 33 33 33 33 32 32 31 30 31 28 27 27 28 27 28 28 27 26 26 26 26 25 26 26 25 25 26 27 27 27
39 38 38 37 38 38 37 36 36 34 34 33 33 32 32 32 32 31 30 28 27 27 27 27 28 27 28 28 27 26 26 25 26 26 26 26 26 25 25 26 26 30 30
39 39 39 37 36 36 35 34 34 33 33 32 31 31 32 31 29 29 29 28 27 27 27 27 27 27 28 27 26 25 25 25 25 26 26 26 26 27 26 26 27 26 27
38 36 38 37 36 36 35 34 33 33 32 31 31 32 30 28 28 28 28 27 27 27 26 26 26 26 28 27 26 26 25 25 26 26 26 26 26 26 27 27 27 27 27
38 37 36 35 35 33 33 34 33 32 31 30 31 31 30 28 28 28 28 27 28 27 27 27 26 26 26 27 26 25 24 24 25 25 25 25 25 26 26 26 27 27 28
37 36 35 35 34 34 33 32 31 31 31 30 30 30 29 28 28 27 27 27 26 26 27 27 25 25 26 25 27 26 24 23 24 25 24 24 24 24 25 25 26 27 28
36 35 34 34 33 32 32 31 31 31 30 30 29 29 28 28 27 27 26 26 26 26 26 25 25 24 24 23 24 25 25 25 26 25 24 23 23 25 25 26 28 30 30
35 35 34 33 32 32 31 31 29 29 29 29 28 28 28 27 26 26 25 25 24 24 23 24 24 23 22 21 21 22 23 28 28 29 29 29 29 29 30 30 31 31 31
33 34 33 33 31 32 30 29 27 27 26 27 27 26 26 25 25 24 24 23 23 23 22 23 22 21 21 22 22 24 29 31 31 33 31 31 31 32 32 31 31 31 31
MSLP
1012.16 1012.10 1012.08 1011.82 1011.80 1011.69 1011.65 1011.67 1011.70 1011.72 1011.74 1011.85 1012.05 1012.30 1012.60 1012.80 1012.99 1013.32 1013.77 1014.15 1014.70 1015.34 1015.92 1016.58 1017.26 1017.76 1018.17 1018.89 1019.61 1020.21 1019.60 1020.41 1020.32 1022.45 1022.25 1022.33 1022.72 1022.73 1022.98 1022.78 1022.36 1022.05 1022.09
1012.64 1012.40 1012.33 1012.24 1012.14 1012.07 1012.17 1012.36 1012.40 1012.47 1012.51 1012.66 1012.57 1012.72 1012.98 1013.27 1013.58 1013.88 1014.29 1014.88 1015.41 1016.08 1016.63 1017.05 1017.63 1018.11 1018.88 1019.04 1019.44 1020.57 1020.52 1020.46 1020.94 1021.89 1022.12 1022.44 1022.65 1022.55 1022.46 1022.55 1022.09 1021.61 1021.47
1013.16 1013.08 1013.15 1013.04 1013.00 1013.09 1013.21 1013.34 1013.33 1013.35 1013.55 1013.71 1013.81 1013.94 1014.11 1014.34 1014.54 1014.84 1015.14 1015.55 1016.03 1016.52 1017.19 1017.53 1018.13 1018.39 1018.88 1019.87 1019.74 1021.01 1020.65 1021.15 1021.47 1021.90 1022.14 1022.01 1022.03 1022.08 1021.79 1021.40 1021.43 1021.38 1021.08
1013.85 1013.91 1014.06 1014.00 1014.09 1014.19 1014.22 1014.38 1014.57 1014.66 1014.58 1014.69 1014.87 1015.08 1015.26 1015.39 1015.58 1015.88 1016.28 1016.61 1016.98 1017.51 1018.04 1018.82 1019.01 1018.88 1019.13 1020.08 1020.56 1020.72 1020.91 1021.23 1021.48 1021.61 1021.58 1021.41 1021.26 1021.32 1021.30 1021.32 1021.16 1021.06 1020.89
1014.41 1014.61 1014.98 1015.09 1015.23 1015.21 1015.28 1015.35 1015.57 1015.68 1015.80 1015.84 1015.99 1015.98 1016.24 1016.56 1016.94 1017.08 1017.32 1017.92 1018.16 1018.46 1018.76 1019.77 1020.33 1019.85 1019.84 1019.95 1020.24 1020.53 1020.63 1020.83 1020.88 1021.13 1021.45 1021.18 1021.21 1021.20 1021.06 1020.94 1021.17 1021.04 1020.64
1015.13 1015.19 1015.48 1015.78 1016.01 1016.13 1016.22 1015.95 1016.17 1016.60 1016.66 1016.78 1016.98 1016.93 1017.22 1017.41 1017.73 1017.90 1018.34 1018.72 1019.00 1019.53 1019.87 1020.43 1020.66 1020.49 1020.14 1020.15 1020.43 1020.75 1020.85 1020.67 1020.88 1021.17 1021.26 1021.21 1021.17 1020.95 1020.96 1021.16 1021.46 1021.48 1021.01
1015.63 1015.86 1016.21 1016.62 1016.72 1016.78 1017.17 1017.31 1017.38 1017.79 1018.00 1017.97 1018.11 1018.15 1018.50 1018.81 1018.86 1018.91 1019.23 1020.02 1019.90 1020.01 1020.37 1020.96 1020.76 1021.09 1020.69 1020.64 1020.67 1020.72 1020.73 1020.78 1020.82 1021.18 1021.17 1021.13 1021.15 1021.10 1021.37 1021.48 1021.58 1021.38 1020.97
1016.48 1016.76 1016.98 1017.24 1017.51 1017.78 1018.16 1018.39 1018.49 1018.61 1019.03 1019.17 1019.39 1019.52 1019.79 1019.98 1019.83 1019.73 1019.92 1020.50 1020.81 1020.91 1021.31 1020.87 1021.48 1021.25 1020.83 1020.73 1020.68 1020.58 1020.65 1020.62 1020.64 1020.99 1021.13 1021.21 1021.09 1021.05 1021.11 1021.12 1021.05 1020.91 1020.51
1017.34 1017.68 1017.81 1018.05 1018.33 1018.54 1018.75 1018.92 1019.29 1019.55 1019.91 1020.07 1020.13 1020.25 1020.31 1020.38 1020.34 1020.41 1020.62 1021.07 1021.17 1021.35 1021.35 1021.48 1021.32 1020.98 1021.03 1020.80 1020.68 1020.73 1020.55 1020.51 1020.57 1020.81 1021.09 1021.10 1021.02 1020.97 1020.98 1021.09 1021.04 1020.96 1020.40
1018.08 1018.35 1018.61 1018.76 1018.84 1019.06 1019.30 1019.57 1020.09 1020.25 1020.43 1020.56 1020.43 1020.36 1020.41 1020.51 1020.66 1020.67 1020.67 1020.66 1020.78 1020.87 1021.09 1021.20 1021.38 1021.31 1021.10 1021.01 1020.94 1020.69 1020.74 1020.82 1020.73 1020.78 1020.75 1020.60 1020.46 1020.51 1020.48 1020.86 1021.01 1020.88 1020.77
1018.61 1018.95 1019.13 1019.31 1019.50 1019.62 1019.86 1020.17 1020.39 1020.53 1020.64 1020.57 1020.42 1020.49 1020.48 1020.60 1020.86 1020.93 1020.94 1020.93 1021.02 1021.09 1021.20 1021.26 1021.34 1021.42 1021.27 1021.12 1021.05 1021.08 1021.01 1020.92 1020.78 1020.72 1020.59 1020.45 1020.41 1020.44 1020.43 1020.40 1020.48 1020.58 1020.55
1019.11 1019.28 1019.47 1019.61 1019.66 1019.92 1020.13 1020.30 1020.39 1020.40 1020.45 1020.46 1020.56 1020.75 1020.89 1020.97 1021.10 1021.25 1021.35 1021.44 1021.45 1021.30 1021.28 1021.30 1021.31 1021.44 1021.40 1021.37 1021.32 1021.10 1021.03 1021.04 1020.96 1020.86 1020.82 1020.67 1020.65 1020.64 1020.61 1020.59 1020.62 1020.49 1020.20
1019.34 1019.38 1019.43 1019.41 1019.43 1019.56 1019.76 1019.90 1019.99 1020.05 1020.27 1020.48 1020.70 1020.83 1021.11 1021.29 1021.36 1021.63 1021.67 1021.64 1021.59 1021.53 1021.52 1021.62 1021.62 1021.55 1021.48 1021.37 1021.35 1021.29 1021.21 1021.05 1020.94 1020.94 1020.93 1020.81 1020.72 1020.76 1020.68 1020.41 1019.94 1019.58 1019.17
1018.95 1019.06 1019.08 1019.26 1019.54 1019.80 1019.97 1020.00 1020.08 1020.31 1020.52 1020.74 1020.96 1021.10 1021.28 1021.37 1021.45 1021.50 1021.55 1021.45 1021.53 1021.50 1021.63 1021.52 1021.61 1021.62 1021.48 1021.42 1021.25 1021.09 1021.08 1021.10 1021.11 1021.03 1020.84 1020.72 1020.66 1020.46 1020.24 1019.94 1019.46 1018.97 1018.47
1018.60 1018.95 1019.29 1019.56 1019.65 1019.87 1020.10 1020.25 1020.42 1021.00 1021.03 1021.05 1021.34 1021.46 1021.52 1021.53 1021.74 1021.92 1021.97 1021.91 1021.90 1021.85 1021.87 1021.58 1021.42 1021.32 1021.22 1021.11 1021.09 1021.02 1020.93 1020.91 1020.96 1020.93 1020.94 1020.83 1020.56 1020.25 1019.96 1019.65 1019.12 1018.55 1017.95
1018.60 1019.04 1019.41 1019.70 1019.85 1020.00 1020.41 1020.94 1021.34 1021.56 1021.71 1021.81 1021.92 1021.89 1021.93 1022.04 1022.10 1022.21 1022.22 1022.18 1022.19 1022.04 1021.86 1021.62 1021.46 1021.41 1021.35 1021.26 1021.21 1021.11 1021.02 1021.00 1021.01 1021.05 1021.09 1020.83 1020.46 1020.12 1019.77 1019.29 1018.70 1018.14 1017.41
1018.53 1019.00 1019.44 1019.72 1019.91 1020.03 1020.30 1020.69 1021.37 1021.95 1022.04 1022.11 1022.15 1022.19 1022.26 1022.32 1022.36 1022.41 1022.34 1022.29 1022.13 1022.10 1021.81 1021.64 1021.65 1021.60 1021.57 1021.48 1021.36 1021.30 1021.24 1021.17 1021.15 1021.05 1020.80 1020.52 1020.27 1019.83 1019.37 1018.74 1018.19 1017.58 1016.76
1018.67 1019.04 1019.43 1019.74 1019.95 1020.20 1020.45 1020.79 1021.01 1021.25 1021.46 1021.80 1022.17 1022.25 1022.34 1022.35 1022.39 1022.41 1022.39 1022.23 1021.89 1021.81 1021.90 1021.85 1021.77 1021.69 1021.67 1021.55 1021.48 1021.42 1021.34 1021.22 1021.02 1020.85 1020.56 1020.16 1019.74 1019.37 1018.84 1018.22 1017.63 1016.95 1016.15
1018.62 1019.03 1019.39 1019.77 1020.04 1020.29 1020.60 1020.87 1021.04 1021.29 1021.48 1021.62 1021.81 1022.09 1022.24 1022.30 1022.26 1022.26 1022.31 1022.19 1021.98 1021.87 1021.74 1021.70 1021.62 1021.67 1021.62 1021.54 1021.51 1021.39 1021.22 1021.02 1020.73 1020.35 1019.94 1019.54 1019.13 1018.76 1018.18 1017.63 1017.07 1016.34 1015.57
1018.47 1018.89 1019.25 1019.62 1020.01 1020.32 1020.56 1020.79 1021.03 1021.23 1021.35 1021.41 1021.55 1021.69 1021.87 1021.97 1021.91 1021.83 1021.97 1022.04 1022.03 1021.86 1021.70 1021.63 1021.58 1021.52 1021.55 1021.47 1021.37 1021.26 1020.97 1020.71 1020.36 1019.89 1019.39 1018.93 1018.54 1018.11 1017.52 1016.99 1016.46 1015.72 1014.95
1018.37 1018.96 1019.28 1019.59 1019.92 1020.18 1020.40 1020.61 1020.84 1021.07 1021.16 1021.27 1021.39 1021.56 1021.84 1021.89 1021.74 1021.71 1021.74 1021.73 1021.66 1021.57 1021.53 1021.48 1021.30 1021.26 1021.18 1021.09 1020.96 1020.79 1020.43 1020.03 1019.73 1019.34 1018.91 1018.42 1018.01 1017.50 1016.94 1016.36 1015.73 1015.00 1014.20
1018.12 1018.67 1019.18 1019.51 1019.79 1020.12 1020.33 1020.53 1020.75 1020.93 1021.02 1021.12 1021.23 1021.37 1021.57 1021.67 1021.50 1021.50 1021.49 1021.49 1021.46 1021.41 1021.34 1021.22 1021.06 1020.90 1020.73 1020.63 1020.52 1020.35 1020.03 1019.58 1019.14 1018.70 1018.21 1017.76 1017.32 1016.83 1016.26 1015.63 1014.87 1014.07 1013.17
1017.91 1018.37 1018.90 1019.32 1019.62 1019.89 1020.17 1020.44 1020.61 1020.73 1020.82 1020.91 1021.08 1021.19 1021.26 1021.28 1021.24 1021.28 1021.30 1021.19 1021.07 1020.98 1020.86 1020.80 1020.71 1020.51 1020.25 1020.13 1019.99 1019.81 1019.53 1019.03 1018.58 1018.21 1017.76 1017.26 1016.75 1016.17 1015.54 1014.77 1013.91 1012.91 1012.09
1017.66 1018.17 1018.71 1019.10 1019.41 1019.74 1019.97 1020.18 1020.41 1020.55 1020.67 1020.78 1020.88 1020.94 1020.95 1020.97 1021.00 1020.97 1020.92 1020.83 1020.71 1020.52 1020.39 1020.32 1020.20 1020.03 1019.85 1019.79 1019.55 1019.23 1018.88 1018.38 1017.94 1017.54 1017.21 1016.61 1015.89 1015.14 1014.49 1013.66 1012.75 1011.79 1011.06
1017.47 1017.81 1018.30 1018.76 1019.13 1019.50 1019.81 1019.96 1020.16 1020.36 1020.50 1020.59 1020.63 1020.68 1020.66 1020.66 1020.71 1020.71 1020.66 1020.56 1020.38 1020.20 1019.99 1019.83 1019.66 1019.43 1019.22 1019.02 1018.78 1018.46 1018.06 1017.55 1017.02 1016.42 1015.78 1015.14 1014.42 1013.69 1012.99 1012.23 1011.52 1010.76 1010.04
1017.13 1017.46 1017.93 1018.38 1018.78 1019.13 1019.39 1019.64 1019.83 1020.05 1020.19 1020.23 1020.27 1020.38 1020.44 1020.44 1020.42 1020.34 1020.25 1020.16 1020.02 1019.82 1019.62 1019.33 1019.10 1018.91 1018.69 1018.34 1017.88 1017.51 1016.97 1016.35 1015.78 1015.21 1014.72 1014.01 1013.23 1012.41 1011.87 1011.16 1010.51 1009.89 1009.02
Wind_Speed
7 6 5 4 4 3 3 4 4 4 4 4 4 4 3 1 1 4 5 6 8 7 7 8 9 9 7 4 5 3 4 2 4 2 1 2 1 2 5 7 7 7 8
6 5 7 7 7 7 8 8 7 7 7 7 5 3 3 3 4 5 6 7 8 8 8 9 10 7 8 6 5 3 4 5 3 2 2 1 3 4 5 7 7 8 7
7 7 8 9 9 10 10 10 10 9 9 10 9 8 7 6 6 6 7 8 9 10 8 9 8 8 9 4 7 4 5 4 4 2 1 3 4 5 6 4 5 7 7
7 8 8 9 9 10 10 10 10 10 10 10 11 10 9 9 9 9 10 10 11 10 10 8 6 7 9 7 5 5 5 4 4 3 3 3 2 3 2 5 5 4 7
7 7 8 8 8 9 10 10 10 11 11 11 10 11 10 9 7 9 10 10 11 11 11 8 5 9 12 8 5 5 5 2 1 1 3 2 3 3 4 3 4 5 6
6 8 8 7 7 8 8 10 12 11 11 12 11 12 11 8 18 19 13 9 10 9 9 5 4 7 8 8 6 5 1 2 1 2 2 4 6 4 3 3 4 6 6
6 7 7 6 7 9 9 10 11 11 11 11 11 12 12 11 20 21 20 9 9 9 6 2 4 2 3 2 2 1 1 2 4 4 5 5 5 4 3 2 5 6 9
6 6 6 8 9 10 9 10 10 9 9 9 10 11 10 10 19 19 16 7 5 7 4 4 0 1 3 2 2 2 1 3 3 3 4 5 5 4 4 3 6 7 8
6 5 7 9 9 9 9 9 9 9 9 8 7 9 10 9 13 12 9 6 5 4 2 2 2 0 3 4 4 1 3 3 4 5 8 11 12 12 10 5 5 6 8
6 6 7 8 10 9 8 9 7 7 7 7 6 7 10 8 10 8 3 3 3 2 3 3 5 5 5 7 5 5 3 3 3 3 4 6 8 7 10 5 5 6 6
7 7 7 7 9 8 8 6 6 6 5 5 6 6 7 8 7 8 9 4 3 2 2 2 1 6 7 7 7 4 4 6 8 4 4 3 3 4 3 3 3 4 6
6 7 7 7 7 7 8 7 7 6 5 5 5 5 4 6 7 7 7 7 5 3 3 2 3 8 7 6 5 5 7 7 4 3 4 3 2 3 4 6 7 8 7
9 9 8 8 8 7 6 6 5 4 3 4 2 3 3 1 3 4 5 6 4 5 4 5 7 7 6 5 4 5 6 3 3 3 4 3 2 5 6 7 7 8 8
10 9 8 7 7 6 3 3 3 3 3 2 2 2 2 1 1 1 1 1 1 3 0 3 4 5 5 4 4 3 2 2 3 4 4 4 5 6 7 6 7 7 8
9 8 7 5 6 5 4 4 4 6 5 2 2 2 2 1 3 4 5 5 5 5 6 3 3 2 2 2 2 2 2 2 2 3 5 7 7 7 7 6 7 8 8
8 6 5 4 5 4 5 6 10 8 7 7 5 4 1 2 2 4 5 6 6 6 4 3 3 2 3 3 3 4 3 4 4 5 6 6 6 6 7 7 7 8 9
7 6 5 5 4 4 3 4 5 4 4 4 3 3 3 4 1 3 5 6 6 5 3 2 3 2 3 3 3 4 5 5 6 5 5 6 6 7 11 8 8 8 9
6 9 4 4 3 3 3 2 1 2 2 3 3 1 1 3 2 4 6 8 4 3 2 3 3 3 3 4 4 5 4 5 5 6 6 6 6 7 8 8 8 10 10
7 5 4 4 3 3 3 2 2 2 2 1 1 4 3 3 5 5 5 4 3 4 3 3 3 3 4 5 4 4 5 5 6 6 7 6 7 6 8 8 9 18 19
6 9 7 4 4 4 3 3 3 3 3 2 2 2 1 3 3 3 3 3 4 4 3 3 3 3 5 5 6 4 5 6 7 7 7 7 7 7 8 9 9 10 11
5 5 8 4 4 4 4 4 3 3 3 2 2 2 4 4 4 3 3 4 4 4 3 4 4 4 5 6 5 5 6 6 7 7 7 7 7 8 8 9 10 11 12
6 6 5 4 4 4 3 3 3 3 3 3 3 3 6 4 4 4 4 4 3 3 4 5 5 5 4 6 7 6 7 8 7 7 8 7 7 8 8 9 10 11 12
6 6 5 4 4 5 4 3 3 4 4 3 3 3 4 4 4 4 4 4 4 4 4 5 5 6 5 5 6 7 8 8 8 7 8 8 8 9 9 11 12 13 12
6 6 6 5 4 4 5 5 4 6 4 3 4 4 4 4 4 5 5 4 5 5 5 5 5 7 7 6 6 7 8 9 7 8 10 10 10 13 11 12 12 13 13
6 6 6 6 5 5 5 4 4 4 4 4 4 4 4 4 5 5 5 4 5 5 6 6 6 7 9 9 10 12 14 22 15 14 10 12 13 15 13 11 13 13 15
6 7 6 5 5 5 5 5 4 4 4 4 4 4 4 4 5 5 5 5 5 6 6 6 8 9 10 10 12 15 20 21 18 21 12 11 12 11 10 12 16 12 15
Wind_Direction
13 25 21 22 25 17 23 16 5 340 354 317 303 293 292 260 144 88 78 91 96 100 99 110 109 113 107 104 99 56 92 149 120 204 125 106 359 302 300 277 268 296 279
6 18 29 28 32 36 36 30 19 20 20 8 9 21 52 79 94 115 124 121 123 120 120 119 119 118 113 106 129 76 104 46 89 123 78 135 220 236 250 270 271 270 285
19 31 33 34 40 38 37 32 37 41 44 43 43 43 47 55 65 85 98 99 102 110 117 119 124 124 110 111 90 131 86 89 76 85 286 223 231 222 234 269 299 281 273
44 45 44 41 42 45 45 45 45 48 57 60 61 63 62 66 74 80 85 89 89 82 70 61 75 98 109 104 107 105 113 132 165 187 236 266 304 287 239 268 274 320 296
52 57 51 52 54 60 59 62 59 57 59 67 72 74 72 71 70 71 76 77 78 81 81 65 68 98 109 120 121 150 144 149 58 51 255 268 302 282 280 321 299 299 308
57 63 56 57 65 72 72 78 76 74 78 78 70 69 70 75 82 84 77 83 80 67 70 74 61 71 79 85 71 49 111 199 217 301 302 274 276 290 348 323 351 323 315
62 65 69 75 71 66 65 74 78 76 67 61 66 69 62 61 78 77 73 56 65 82 69 117 82 91 99 137 191 250 273 264 264 287 286 295 307 319 51 298 276 272 272
68 75 84 86 80 79 82 74 70 69 70 72 69 68 73 74 80 81 79 71 72 81 86 63 176 29 50 347 274 235 227 245 236 268 292 292 288 297 289 264 272 282 286
88 85 80 95 93 89 75 77 77 79 75 79 77 85 89 87 85 88 88 86 81 79 91 171 231 298 51 325 322 89 295 325 298 260 270 276 282 284 280 291 284 285 292
89 95 97 102 103 90 86 81 83 85 88 90 90 88 88 87 81 76 97 164 141 115 107 94 55 10 355 351 333 331 344 317 327 277 283 286 273 263 269 245 260 270 285
104 104 101 94 103 92 87 83 87 93 103 110 101 99 85 85 82 63 42 41 21 24 10 23 53 2 350 343 339 321 333 316 317 313 284 298 297 280 263 258 276 272 269
110 108 102 106 109 112 117 127 126 127 119 106 96 87 67 78 49 59 42 30 16 358 352 354 359 350 334 324 317 318 319 323 294 305 305 291 309 304 302 301 296 281 267
126 126 125 129 132 129 120 123 118 112 106 94 84 88 88 64 87 59 38 15 22 347 5 358 322 316 305 281 250 309 311 282 297 294 293 298 314 302 300 289 283 283 274
142 135 129 122 119 111 87 94 108 93 81 88 94 81 107 129 35 327 321 310 244 311 208 299 311 290 277 286 286 279 267 304 312 304 299 309 304 299 301 303 299 302 293
135 133 127 132 124 116 76 42 79 45 21 66 60 35 357 73 43 6 355 345 354 337 327 299 290 302 303 289 295 287 290 302 316 312 303 301 299 300 302 300 300 297 290
144 138 142 142 141 134 132 101 69 87 81 76 64 32 100 27 7 356 332 333 323 332 306 294 311 308 309 329 323 328 331 321 302 313 305 302 298 297 295 285 285 296 295
153 142 149 159 161 155 153 146 147 114 88 85 74 55 11 332 20 332 327 325 305 318 279 323 298 308 314 311 313 316 311 311 308 283 278 297 293 289 297 290 289 291 297
143 153 158 161 154 158 143 165 182 209 226 168 165 298 327 299 297 320 325 313 278 227 281 292 300 305 305 306 308 305 301 297 295 296 293 285 288 290 288 283 284 289 295
152 157 159 157 155 152 150 164 172 193 233 251 209 199 210 282 285 292 304 286 301 289 278 274 277 284 289 295 292 290 286 281 282 278 276 272 267 266 273 276 282 294 300
162 167 169 163 157 172 173 178 198 212 223 236 244 260 275 254 261 275 273 275 279 277 279 277 277 274 284 286 291 286 281 286 286 278 277 276 278 277 279 286 285 291 292
157 163 178 178 174 181 181 195 198 212 229 240 253 247 271 282 288 283 273 265 263 269 275 274 273 272 279 283 282 273 274 277 279 281 277 276 280 281 280 278 281 283 286
164 166 176 185 169 173 196 199 197 217 228 244 255 244 251 261 265 264 266 268 270 270 271 272 272 269 267 274 280 276 280 280 278 276 277 280 281 281 280 280 282 284 284
167 167 169 178 179 189 194 202 206 216 230 236 247 255 252 251 259 259 265 266 263 263 263 266 270 270 267 266 268 276 277 274 274 278 283 284 281 278 279 281 282 285 284
167 171 179 184 180 194 205 201 210 224 235 233 241 248 252 258 265 265 263 266 267 268 268 268 264 264 273 273 269 267 269 272 275 275 273 271 271 281 275 273 274 283 291
169 174 180 186 187 201 207 206 208 217 220 230 239 249 254 258 264 267 270 269 267 271 273 270 269 267 266 263 265 271 273 283 282 274 269 264 269 276 277 278 285 289 292
174 179 180 184 188 200 198 204 207 208 218 227 228 242 254 260 266 268 268 268 270 272 278 277 271 267 270 272 272 276 287 292 296 298 293 281 285 283 288 288 290 291 291